Location: Newark
(23.3970°S, 47.6010°W)
Time: 10:58:15
(UTC+00:00)

Tiros 1 despin weight - Pass Details

Date: 22 February 2020
Orbit: 593 x 642 km, 48.2° (Epoch: 06 April)

Event Time Altitude Azimuth Distance (km) Brightness Sun altitude
Rises 22:36:33 0° 224° (SW) 2,958 ? -12.2°
Reaches altitude 10° 22:38:55 10° 222° (SW) 2,040 ? -12.7°
Maximum altitude 22:43:38 80° 135° (SE) 650 ? -13.8°
Enters shadow 22:46:44 21° 49° (NE) 1,425 ? -14.5°
Drops below altitude 10° 22:48:15 10° 47° (NE) 1,998 - -14.8°
Sets 22:50:32 0° 46° (NE) 2,891 - -15.3°
